This is the latest recevied weather packets stored in our database for station/object SK4BW-10. If no packets are shown the sender has not sent any weather packets the latest 10 day(s).
| Time | Temp. | Humidity | Pressure | Rain* | Wind** | Luminosity | Snow |
|---|---|---|---|---|---|---|---|
| 1777721954 | 18.33° C | 32% | 1008.1 hPa | - | - | - | - |
| 1777721054 | 18.33° C | 32% | 1008.2 hPa | - | - | - | - |
| 1777720153 | 17.78° C | 30% | 1008.4 hPa | - | - | - | - |
| 1777719253 | 17.78° C | 32% | 1008.6 hPa | - | - | - | - |
| 1777718352 | 17.78° C | 28% | 1008.8 hPa | - | - | - | - |
| 1777717451 | 17.22° C | 32% | 1008.9 hPa | - | - | - | - |
| 1777716550 | 16.67° C | 32% | 1009 hPa | - | - | - | - |
| 1777715649 | 16.11° C | 29% | 1009.2 hPa | - | - | - | - |
| 1777714748 | 15° C | 33% | 1009.3 hPa | - | - | - | - |
| 1777713847 | 15.56° C | 34% | 1009.5 hPa | - | - | - | - |
| 1777712946 | 15° C | 33% | 1009.7 hPa | - | - | - | - |
| 1777712046 | 15° C | 35% | 1009.8 hPa | - | - | - | - |
| 1777711146 | 15° C | 35% | 1009.9 hPa | - | - | - | - |
| 1777710245 | 14.44° C | 36% | 1010.2 hPa | - | - | - | - |
| 1777709344 | 13.33° C | 37% | 1010.2 hPa | - | - | - | - |
| 1777708443 | 13.33° C | 38% | 1010.3 hPa | - | - | - | - |
| 1777707542 | 12.78° C | 39% | 1010.3 hPa | - | - | - | - |
| 1777706642 | 12.22° C | 42% | 1010.4 hPa | - | - | - | - |
| 1777705741 | 11.67° C | 42% | 1010.5 hPa | - | - | - | - |
| 1777704840 | 12.78° C | 39% | 1010.4 hPa | - | - | - | - |
| 1777703939 | 11.67° C | 41% | 1010.3 hPa | - | - | - | - |
| 1777703038 | 11.67° C | 42% | 1010.3 hPa | - | - | - | - |
| 1777702137 | 12.22° C | 41% | 1010.4 hPa | - | - | - | - |
| 1777701236 | 12.22° C | 41% | 1010.4 hPa | - | - | - | - |
| 1777700335 | 12.22° C | 41% | 1010.4 hPa | - | - | - | - |
* Rain since midnight (hover to see other rain measurements)
** Current wind speed in m/s (hover to see current wind gust speed)